Skip Page Navigation
NASA JPL Caltech
NASA Logo - Jet Propulsion Laboratory + View the NASA Portal
+ Center for Near-Earth Object Studies
JPL Home Earth Solar System Stars & Galaxies Technology
JPL Solar System Dynamics
BODIES ORBITS EPHEMERIDES TOOLS PHYSICAL DATA DISCOVERY FAQ SITE MAP
JPL Small-Body Database Browser
Search: [ help ]  
15572 (2000 GH65)
Classification: Outer Main-belt Asteroid          SPK-ID: 2015572
Ephemeris | Orbit Diagram | Orbital Elements | Mission Design | Physical Parameters | Discovery Circumstances | Close-Approach Data ]

[ show orbit diagram ]
Orbital Elements at Epoch 2459000.5 (2020-May-31.0) TDB
Reference: JPL 31 (heliocentric ecliptic J2000)
 Element Value Uncertainty (1-sigma)   Units 
e .1602753023811017 3.6726e-08  
a 3.216184074120868 1.9143e-08 au
q 2.700709199127862 1.1327e-07 au
i 2.107678000992582 3.9245e-06 deg
node 82.40233813365691 0.00011919 deg
peri 213.8344481305645 0.00011996 deg
M 112.5575844125708 1.5278e-05 deg
tp 2458341.808535338505
(2018-Aug-11.30853534)
8.7119e-05 TDB
period 2106.734330837814
5.77
1.8809e-05
5.15e-08
d
yr
n .1708805874240602 1.5256e-09 deg/d
Q 3.731658949113874 2.2211e-08 au
  Orbit Determination Parameters
   # obs. used (total)      1574  
   data-arc span      17841 days (48.85 yr)  
   first obs. used      1971-03-24  
   last obs. used      2020-01-27  
   planetary ephem.      DE431  
   SB-pert. ephem.      SB431-N16  
   condition code      0  
   norm. resid. RMS      .5489  
   source      ORB  
   producer      Otto Matic  
   solution date      2020-Feb-22 21:21:24  

Additional Information
 Earth MOID = 1.68511 au 
 Jupiter MOID = 1.47669 au 
 T_jup = 3.169 
[ show covariance matrix ]

Ephemeris | Orbit Diagram | Orbital Elements | Mission Design | Physical Parameters | Discovery Circumstances | Close-Approach Data ]

Physical Parameter Table
Parameter Symbol Value Units Sigma Reference Notes
absolute magnitude H 13.6   n/a MPO502288  
diameter diameter 8.118 km 0.457 urn:nasa:pds:neowise_diameters_albedos::2.0[mainbelt] (http://adsabs.harvard.edu/abs/2011ApJ...741...68M)  
geometric albedo albedo 0.128   0.039 urn:nasa:pds:neowise_diameters_albedos::2.0[mainbelt] (http://adsabs.harvard.edu/abs/2011ApJ...741...68M)  

15572 (2000 GH65)          Discovered 2000-Apr-05 by LINEAR at Socorro
Reference: 20000621/Numbers.arcLast Updated: 2004-04-19

[ show close-approach data ]
Alternate Designations
 2000 GH65 = 1978 NF7 = 1999 CM33 = 2177 T-1 
Ephemeris | Orbit Diagram | Orbital Elements | Mission Design | Physical Parameters | Discovery Circumstances | Close-Approach Data ]
ABOUT SSD CREDITS/AWARDS PRIVACY/COPYRIGHT GLOSSARY LINKS
FirstGov 2020-Jul-09 03:00 UT
(server date/time)  
NASA Home Page
Site Manager:   Ryan S. Park
Webmaster  Alan B. Chamberlin